Location: Coll
(42.4728°N, 0.7714°E)
Time: 06:54:01
(UTC+00:00)

IDEFIX/ARIANE 42P - Pass Details

Date: 23 October 2020
Orbit: 784 x 803 km, 98.4° (Epoch: 23 November)

Event Time Altitude Azimuth Distance (km) Brightness Sun altitude
Rises 03:58:21 0° 3° (N) 3,310 5.9 -26.7°
Reaches altitude 10° 04:00:55 10° 353° (N) 2,373 5.0 -26.2°
Enters shadow 04:02:17 17° 344° (NNW) 1,931 4.5 -26.0°
